Location: Ferma
(41.9500°N, 44.5167°E)
Time: 19:30:24
(UTC+00:00)

Cosmos 2333 - Pass Details

Date: 24 October 2021
Orbit: 829 x 866 km, 70.9° (Epoch: 02 December)

Event Time Altitude Azimuth Distance (km) Brightness Sun altitude
Rises 16:05:22 0° 196° (SSW) 3,364 7.5 -22.7°
Reaches altitude 10° 16:07:47 10° 194° (SSW) 2,438 6.7 -23.1°
Maximum altitude 16:13:21 72° 111° (ESE) 886 4.0 -24.2°
Enters shadow 16:14:50 49° 44° (NE) 1,079 4.4 -24.4°
